Location: Newark
(43.0000°N, 1.6781°W)
Time: 07:56:03
(UTC+00:00)

PicSat - Visible Passes

Search period start: 11 May 2021 00:00
Search period end: 21 May 2021 00:00
Orbit: 479 x 489 km, 97.4° (Epoch: 10 May)

Date Brightness Start Highest point End Pass type
(mag) Time Alt. Az. Time Alt. Az. Time Alt. Az.
11 May ? 21:34:22 29° ENE 21:34:22 29° ENE 21:37:22 10° N visible
11 May ? 23:08:43 16° WNW 23:08:43 16° WNW 23:10:10 10° NW visible
12 May ? 21:09:36 16° ENE 21:09:57 16° ENE 21:12:10 10° NNE visible
12 May ? 22:43:57 29° WNW 22:43:57 29° WNW 22:46:24 10° NNW visible
13 May ? 22:19:11 57° NW 22:19:11 57° NW 22:22:11 10° NNW visible
14 May ? 21:54:24 50° ENE 21:54:24 50° ENE 21:57:39 10° N visible
15 May ? 21:29:37 26° ENE 21:29:48 26° ENE 21:32:50 10° NNE visible
15 May ? 23:03:58 18° WNW 23:03:58 18° WNW 23:05:54 10° NW visible
16 May ? 21:04:50 13° ENE 21:05:31 14° ENE 21:07:28 10° NNE visible
16 May ? 22:39:11 36° WNW 22:39:11 36° WNW 22:42:01 10° NNW visible
17 May ? 22:14:24 73° NNW 22:14:24 73° NNW 22:17:43 10° NNW visible
18 May ? 21:49:37 45° ENE 21:49:40 45° ENE 21:53:07 10° N visible
18 May ? 23:23:57 11° W 23:23:57 11° W 23:24:35 10° WNW visible
19 May ? 21:24:49 22° E 21:25:18 23° ENE 21:28:12 10° NNE visible
19 May ? 22:59:10 22° W 22:59:10 22° W 23:01:33 10° NW visible
20 May ? 21:00:01 11° E 21:01:02 13° ENE 21:02:38 10° NE visible
20 May ? 22:34:22 43° W 22:34:22 43° W 22:37:32 10° NNW visible
